Nassau, Bahamas

4:09 PM EDT on April 23, 2018 (GMT -0400)
Nassau International

Weather History for MYNN - January, 2013

Change the Weather History Date:

Sunday, January 6, 2013

  Actual Average Record
Temperature  
Mean Temperature 76 °F -  
Max Temperature 82 °F 77 °F 88 °F (2014)
Min Temperature 69 °F 62 °F 57 °F (2001)
Cooling Degree Days 10    
Growing Degree Days 26 (Base 50)    
Moisture  
Dew Point 70 °F    
Average Humidity 82    
Maximum Humidity 94    
Minimum Humidity 63    
Precipitation  
Precipitation 0.00 in 0.06 in - ()
Sea Level Pressure  
Sea Level Pressure 30.15 in    
Wind  
Wind Speed 5 mph ()    
Max Wind Speed 15 mph    
Max Gust Speed -    
Visibility 6.9 miles    
Events      
Averages and records for this station are not official NWS values.
T = Trace of Precipitation, MM = Missing Value Source: Averaged Metar Reports

Daily Weather History Graph

Daily Weather History Graph

Search for Another Location

Airport or City:

Astronomy

Jan. 06, 2013 Rise Set
Actual Time 6:56 AM EST 5:35 PM EST
Civil Twilight 6:31 AM EST 6:00 PM EST
Nautical Twilight 6:03 AM EST 6:28 PM EST
Astronomical Twilight 5:35 AM EST 6:56 PM EST
Moon 1:22 AM EST (1/6) 12:50 PM EST (1/6)
Length of Visible Light 11h 29m
Length of Day
10h 39m
Waning Crescent, 33% of the Moon is Illuminated
Jan 6
Waning Crescent
Jan 11
New
Jan 18
First Quarter
Jan 26
Full
Feb 3
Last Quarter

Hourly Weather History & Observations

Time (EST) Temp. Heat Index Dew Point Humidity Pressure Visibility Wind Dir Wind Speed Gust Speed Precip Events Conditions
12:00 AM 73.4 °F - 69.8 °F 88% 30.21 in 6.2 mi NE 2.3 mph - N/A   Partly Cloudy
1:00 AM 73 °F - 71 °F 89% 30.21 in 9 mi NE 4.6 mph - -   Scattered Clouds
1:00 AM 73.4 °F - - N/A% 30.20 in 6.2 mi NE 4.6 mph - N/A   Partly Cloudy
2:00 AM 73.4 °F - 69.8 °F 88% 30.19 in - NE 5.8 mph - N/A   Partly Cloudy
3:00 AM 73.4 °F - 69.8 °F 88% 30.18 in 6.2 mi ENE 4.6 mph - N/A   Partly Cloudy
4:00 AM 73 °F - 69 °F 85% 30.16 in 9 mi ENE 4.6 mph - -   Scattered Clouds
4:00 AM 73.4 °F - 69.8 °F 88% 30.16 in 6.2 mi ENE 4.6 mph - N/A   Partly Cloudy
5:00 AM 71.6 °F - 69.8 °F 94% 30.15 in 6.2 mi ENE 2.3 mph - N/A   Partly Cloudy
6:00 AM 71.6 °F - 68.0 °F 88% 30.16 in 6.2 mi Calm Calm - N/A   Partly Cloudy
7:00 AM 72 °F - 70 °F 92% 30.17 in 9 mi ENE 3.5 mph - -   Scattered Clouds
8:00 AM 73.4 °F - 69.8 °F 88% 30.18 in 6.2 mi ENE 3.5 mph - N/A   Mostly Cloudy
9:00 AM 75.2 °F - 69.8 °F 83% 30.19 in 6.2 mi ENE 6.9 mph - N/A   Scattered Clouds
10:00 AM 77 °F - 72 °F 79% 30.19 in 9 mi ESE 12.7 mph - -   Partly Cloudy
10:00 AM 77.0 °F - 71.6 °F 83% 30.19 in 6.2 mi ESE 12.7 mph - N/A   Mostly Cloudy
11:00 AM 78.8 °F - 68.0 °F 69% 30.16 in 6.2 mi East 15.0 mph - N/A   Mostly Cloudy
12:00 PM 78.8 °F - 68.0 °F 69% 30.15 in 6.2 mi ESE 12.7 mph - N/A   Mostly Cloudy
1:00 PM 82 °F - 72 °F 63% 30.13 in 9 mi East 13.8 mph - -   Partly Cloudy
1:00 PM 82.4 °F 87.2 °F 71.6 °F 70% 30.12 in 6.2 mi East 13.8 mph - N/A   Mostly Cloudy
2:00 PM 78.8 °F - 69.8 °F 74% 30.11 in 6.2 mi East 11.5 mph - N/A   Mostly Cloudy
3:00 PM 78.8 °F - 69.8 °F 74% 30.10 in 6.2 mi East 12.7 mph - N/A   Mostly Cloudy
4:00 PM 80 °F - 71 °F 67%  in 9 mi SE 10.4 mph - -  
4:00 PM 78.8 °F - 71.6 °F 78% 30.09 in 6.2 mi SE 10.4 mph - N/A   Mostly Cloudy
5:00 PM 77.0 °F - 69.8 °F 78% 30.09 in 6.2 mi East 9.2 mph - N/A   Mostly Cloudy
6:00 PM 75.2 °F - 69.8 °F 83% 30.10 in 6.2 mi East 4.6 mph - N/A   Mostly Cloudy
7:00 PM 76 °F - 71 °F 80% 30.11 in 9 mi ENE 3.5 mph - -   Scattered Clouds
7:00 PM 75.2 °F - 71.6 °F 89% 30.11 in 6.2 mi ENE 3.5 mph - N/A   Mostly Cloudy
8:00 PM 73.4 °F - 69.8 °F 88% 30.14 in - Variable 2.3 mph - N/A   Scattered Clouds
9:00 PM 73.4 °F - 69.8 °F 88% 30.14 in 6.2 mi ENE 2.3 mph - N/A   Scattered Clouds
10:00 PM 73.4 °F - 71.6 °F 94% 30.14 in 6.2 mi Calm Calm - N/A   Partly Cloudy
11:00 PM 71.6 °F - 68.0 °F 88% 30.14 in 6.2 mi Calm Calm - N/A   Partly Cloudy